| time (UTC) | temp C | wind direction | speed KPH | gust KPH | rain 1hr cm | rain 24hr cm | rain mn cm | humidity % | barometer mb |
| 20260510174606 | 20 | 273 | 6.4 | 14.5 | 0.00 | 0.00 | 0.00 | 74 | 1009.8 |
| 20260510173104 | 20 | 290 | 4.8 | 14.5 | 0.00 | 0.00 | 0.00 | 77 | 1009.8 |
| 20260510171559 | 19 | 265 | 9.7 | 17.7 | 0.00 | 0.00 | 0.00 | 74 | 1009.9 |
| 20260510170059 | 18 | 257 | 4.8 | 14.5 | 0.00 | 0.00 | 0.00 | 76 | 1009.9 |
| 20260510164609 | 18 | 268 | 8.0 | 12.9 | 0.00 | 0.00 | 0.00 | 75 | 1009.8 |
| 20260510163055 | 19 | 243 | 8.0 | 14.5 | 0.00 | 0.00 | 0.00 | 74 | 1009.8 |
| 20260510161555 | 19 | 256 | 8.0 | 19.3 | 0.00 | 0.00 | 0.00 | 74 | 1009.7 |
| 20260510160054 | 18 | 249 | 9.7 | 12.9 | 0.00 | 0.00 | 0.00 | 74 | 1009.7 |
| 20260510154556 | 18 | 242 | 3.2 | 8.0 | 0.00 | 0.00 | 0.00 | 78 | 1009.6 |
| 20260510153052 | 18 | 266 | 1.6 | 11.3 | 0.00 | 0.00 | 0.00 | 76 | 1009.7 |
| 20260510151555 | 20 | 246 | 4.8 | 12.9 | 0.00 | 0.00 | 0.00 | 70 | 1009.4 |
| 20260510150119 | 20 | 163 | 0.0 | 8.0 | 0.00 | 0.00 | 0.00 | 70 | 1008.6 |
| 20260510144609 | 20 | 270 | 3.2 | 14.5 | 0.00 | 0.00 | 0.00 | 69 | 1009.1 |
| 20260510143053 | 20 | 257 | 9.7 | 17.7 | 0.00 | 0.00 | 0.00 | 70 | 1009.2 |
| 20260510141546 | 20 | 134 | 3.2 | 14.5 | 0.00 | 0.00 | 0.00 | 69 | 1009.1 |
| 20260510140045 | 19 | 253 | 3.2 | 12.9 | 0.00 | 0.00 | 0.00 | 73 | 1008.9 |
| 20260510134547 | 18 | 173 | 4.8 | 12.9 | 0.00 | 0.00 | 0.00 | 74 | 1009.0 |
| 20260510133044 | 18 | 71 | 1.6 | 9.7 | 0.00 | 0.00 | 0.00 | 76 | 1008.7 |
| 20260510131537 | 17 | 213 | 0.0 | 8.0 | 0.00 | 0.00 | 0.00 | 82 | 1008.7 |
| 20260510130030 | 15 | 241 | 0.0 | 0.0 | 0.00 | 0.00 | 0.00 | 92 | 1008.7 |
| 20260510124525 | 14 | 241 | 0.0 | 4.8 | 0.00 | 0.00 | 0.00 | 97 | 1008.7 |
| 20260510123022 | 12 | 79 | 0.0 | 3.2 | 0.00 | 0.00 | 0.00 | 100 | 1008.4 |
| 20260510121518 | 11 | 54 | 0.0 | 0.0 | 0.00 | 0.00 | 0.00 | 99 | 1008.5 |
| 20260510120017 | 10 | 17 | 0.0 | 0.0 | 0.00 | 0.00 | 0.00 | 99 | 1008.5 |
| 20260510114519 | 10 | 18 | 0.0 | 0.0 | 0.00 | 0.00 | 0.00 | 99 | 1008.4 |
| 20260510113013 | 9 | 183 | 0.0 | 0.0 | 0.00 | 0.00 | 0.00 | 99 | 1008.2 |
| 20260510111510 | 9 | 116 | 0.0 | 0.0 | 0.00 | 0.00 | 0.00 | 98 | 1007.7 |
| 20260510110006 | 8 | 116 | 0.0 | 0.0 | 0.00 | 0.00 | 0.00 | 98 | 1007.6 |
| 20260510104505 | 8 | 116 | 0.0 | 0.0 | 0.00 | 0.00 | 0.00 | 98 | 1007.5 |
| 20260510103004 | 8 | 116 | 0.0 | 1.6 | 0.00 | 0.00 | 0.00 | 98 | 1007.1 |
| 20260510101507 | 8 | 160 | 0.0 | 0.0 | 0.00 | 0.00 | 0.00 | 98 | 1007.1 |
| 20260510100003 | 8 | 161 | 0.0 | 0.0 | 0.00 | 0.00 | 0.00 | 98 | 1007.1 |
| 20260510094503 | 8 | 89 | 0.0 | 0.0 | 0.00 | 0.00 | 0.00 | 97 | 1006.6 |
| 20260510093104 | 8 | 89 | 0.0 | 0.0 | 0.00 | 0.00 | 0.00 | 97 | 1006.5 |
| 20260510091559 | 8 | 89 | 0.0 | 0.0 | 0.00 | 0.00 | 0.00 | 97 | 1006.4 |
| 20260510090057 | 9 | 89 | 0.0 | 0.0 | 0.00 | 0.00 | 0.00 | 97 | 1006.4 |
| 20260510084554 | 9 | 89 | 0.0 | 0.0 | 0.00 | 0.00 | 0.00 | 97 | 1006.2 |
| 20260510083053 | 9 | 89 | 0.0 | 0.0 | 0.00 | 0.00 | 0.00 | 98 | 1006.1 |
| 20260510081553 | 9 | 89 | 0.0 | 0.0 | 0.00 | 0.00 | 0.00 | 97 | 1006.1 |
| 20260510080056 | 10 | 89 | 0.0 | 0.0 | 0.00 | 0.00 | 0.00 | 97 | 1006.0 |
| 20260510074601 | 10 | 89 | 0.0 | 0.0 | 0.00 | 0.00 | 0.00 | 97 | 1006.0 |
| 20260510073049 | 10 | 89 | 0.0 | 3.2 | 0.00 | 0.00 | 0.00 | 97 | 1005.9 |
| 20260510071549 | 10 | 89 | 0.0 | 0.0 | 0.00 | 0.00 | 0.00 | 97 | 1006.0 |
| 20260510070104 | 10 | 89 | 0.0 | 0.0 | 0.00 | 0.00 | 0.00 | 97 | 1005.8 |
| 20260510064555 | 10 | 89 | 0.0 | 0.0 | 0.00 | 0.00 | 0.00 | 97 | 1005.8 |
| 20260510063045 | 10 | 89 | 0.0 | 0.0 | 0.00 | 0.00 | 0.00 | 96 | 1006.0 |
| 20260510061544 | 10 | 89 | 0.0 | 0.0 | 0.00 | 0.00 | 0.00 | 96 | 1006.0 |
| 20260510060043 | 10 | 89 | 0.0 | 0.0 | 0.00 | 0.00 | 0.00 | 95 | 1006.0 |
| 20260510054546 | 10 | 89 | 0.0 | 0.0 | 0.00 | 0.00 | 0.00 | 96 | 1006.0 |
| 20260510053038 | 11 | 89 | 0.0 | 0.0 | 0.00 | 0.00 | 0.00 | 95 | 1006.0 |
| 20260510051537 | 11 | 89 | 0.0 | 4.8 | 0.00 | 0.00 | 0.00 | 96 | 1006.1 |
| 20260510050036 | 11 | 88 | 0.0 | 0.0 | 0.00 | 0.00 | 0.00 | 96 | 1006.2 |
| 20260510044533 | 11 | 88 | 0.0 | 0.0 | 0.00 | 0.00 | 0.00 | 96 | 1006.3 |
| 20260510043032 | 11 | 88 | 0.0 | 0.0 | 0.00 | 0.00 | 0.00 | 95 | 1006.4 |
| 20260510041541 | 11 | 88 | 0.0 | 0.0 | 0.00 | 0.00 | 0.00 | 95 | 1006.4 |
| 20260510040028 | 11 | 88 | 0.0 | 8.0 | 0.00 | 0.00 | 0.00 | 95 | 1006.3 |
| 20260510034526 | 11 | 88 | 3.2 | 8.0 | 0.00 | 0.00 | 0.00 | 95 | 1006.4 |
| 20260510033025 | 11 | 122 | 0.0 | 0.0 | 0.00 | 0.00 | 0.00 | 93 | 1006.5 |
| 20260510031529 | 12 | 122 | 0.0 | 0.0 | 0.00 | 0.00 | 0.00 | 92 | 1006.4 |
| 20260510030024 | 12 | 122 | 0.0 | 0.0 | 0.00 | 0.00 | 0.00 | 92 | 1006.3 |
| 20260510024523 | 12 | 122 | 0.0 | 0.0 | 0.00 | 0.00 | 0.00 | 91 | 1006.0 |
| 20260510023022 | 13 | 122 | 0.0 | 0.0 | 0.00 | 0.00 | 0.00 | 90 | 1005.8 |
| 20260510021533 | 13 | 122 | 0.0 | 0.0 | 0.00 | 0.00 | 0.00 | 89 | 1005.7 |
| 20260510020028 | 13 | 122 | 0.0 | 0.0 | 0.00 | 0.00 | 0.00 | 87 | 1005.5 |
| 20260510014523 | 14 | 122 | 0.0 | 0.0 | 0.00 | 0.00 | 0.00 | 86 | 1005.4 |
| 20260510013020 | 15 | 122 | 0.0 | 0.0 | 0.00 | 0.00 | 0.00 | 84 | 1004.9 |
| 20260510011520 | 16 | 122 | 0.0 | 0.0 | 0.00 | 0.00 | 0.00 | 79 | 1004.8 |
| 20260510010019 | 16 | 117 | 1.6 | 4.8 | 0.00 | 0.00 | 0.00 | 78 | 1004.4 |
| 20260510004519 | 17 | 117 | 0.0 | 3.2 | 0.00 | 0.00 | 0.00 | 75 | 1004.4 |
| 20260510003017 | 18 | 117 | 0.0 | 1.6 | 0.00 | 0.00 | 0.00 | 72 | 1004.3 |
| 20260510001522 | 18 | 117 | 0.0 | 4.8 | 0.00 | 0.00 | 0.00 | 69 | 1003.9 |
| 20260510000016 | 19 | 126 | 0.0 | 8.0 | 0.00 | 0.00 | 0.00 | 67 | 1003.8 |
| 20260509234516 | 20 | 109 | 0.0 | 6.4 | 0.00 | 0.00 | 0.00 | 66 | 1003.8 |
| 20260509233015 | 20 | 96 | 0.0 | 11.3 | 0.00 | 0.00 | 0.00 | 63 | 1003.8 |
| 20260509231516 | 21 | 68 | 1.6 | 11.3 | 0.00 | 0.00 | 0.00 | 62 | 1003.7 |
| 20260509230015 | 21 | 117 | 3.2 | 11.3 | 0.00 | 0.00 | 0.00 | 61 | 1003.7 |
| 20260509224514 | 21 | 200 | 1.6 | 9.7 | 0.00 | 0.00 | 0.00 | 62 | 1003.6 |
| 20260509223014 | 21 | 131 | 0.0 | 8.0 | 0.00 | 0.00 | 0.00 | 60 | 1003.5 |
| 20260509221513 | 22 | 94 | 1.6 | 14.5 | 0.00 | 0.00 | 0.00 | 59 | 1003.6 |
| 20260509220014 | 22 | 127 | 4.8 | 12.9 | 0.00 | 0.00 | 0.00 | 59 | 1003.8 |
| 20260509214510 | 22 | 96 | 3.2 | 14.5 | 0.00 | 0.00 | 0.00 | 58 | 1003.8 |
| 20260509213008 | 21 | 142 | 6.4 | 14.5 | 0.00 | 0.00 | 0.00 | 60 | 1003.8 |
| 20260509211507 | 21 | 154 | 0.0 | 8.0 | 0.00 | 0.00 | 0.00 | 64 | 1003.8 |
| 20260509210007 | 21 | 174 | 4.8 | 16.1 | 0.00 | 0.00 | 0.00 | 60 | 1003.8 |
| 20260509204508 | 21 | 260 | 8.0 | 12.9 | 0.00 | 0.00 | 0.00 | 62 | 1003.8 |
| 20260509203007 | 21 | 255 | 4.8 | 17.7 | 0.00 | 0.00 | 0.00 | 61 | 1003.9 |
| 20260509201502 | 21 | 126 | 3.2 | 19.3 | 0.00 | 0.00 | 0.00 | 63 | 1003.9 |
| 20260509200100 | 20 | 78 | 0.0 | 6.4 | 0.00 | 0.00 | 0.00 | 67 | 1003.9 |
| 20260509194600 | 20 | 132 | 1.6 | 16.1 | 0.00 | 0.00 | 0.00 | 66 | 1004.3 |
| 20260509193059 | 20 | 59 | 8.0 | 20.9 | 0.00 | 0.00 | 0.00 | 65 | 1004.3 |
| 20260509191606 | 20 | 139 | 3.2 | 12.9 | 0.00 | 0.00 | 0.00 | 64 | 1004.3 |
| 20260509190058 | 20 | 103 | 6.4 | 14.5 | 0.00 | 0.00 | 0.00 | 65 | 1004.3 |
| 20260509184552 | 20 | 74 | 6.4 | 27.4 | 0.00 | 0.00 | 0.00 | 67 | 1004.3 |
| 20260509183051 | 20 | 64 | 9.7 | 24.1 | 0.00 | 0.00 | 0.00 | 65 | 1004.1 |
| 20260509181557 | 19 | 72 | 6.4 | 27.4 | 0.00 | 0.00 | 0.00 | 68 | 1003.9 |
| 20260509180046 | 19 | 94 | 6.4 | 22.5 | 0.00 | 0.00 | 0.00 | 67 | 1004.2 |